Regional Weather Roundup
Issued by NWS Charleston, SC

Current Version | Previous Version | Graphics & Text | Print | Product List | Glossary On
Versions: 1 2 3 4 5 6 7 8 9 10 11 12 13 14 15 16 17 18 19 20 21 22 23 24 25 26 27 28 29 30 31 32 33 34 35 36 37 38 39 40 41 42 43 44 45 46 47 48 49 50
000 ASUS42 KCHS 271411 RWRCHS REGIONAL WEATHER ROUNDUP NATIONAL WEATHER SERVICE CHARLESTON SC 900 AM EST FRI FEB 27 2015 NOTE: "FAIR" INDICATES FEW OR NO CLOUDS BELOW 12,000 FEET WITH NO SIGNIFICANT WEATHER AND/OR OBSTRUCTIONS TO VISIBILITY. NOT ALL STATIONS ARE QUALITY CONTROLLED BY THE NATIONAL WEATHER SERVICE. USE DATA WITH CAUTION...ESPECIALLY DEWPOINT OBSERVATIONS. SCZ027-030-031-034>040-042>050-271500- ...SOUTHEAST SOUTH CAROLINA... CITY SKY/WX TMP DP RH WIND PRES REMARKS N CHARLESTON CLOUDY 39 34 82 NE7 30.34R WCI 34 WATERFRONT PRK N/A 39 N/A N/A N13 N/A WCI 32 MOUNT PLEASANT NOT AVBL PINOPOLIS N/A 39 34 81 E8 30.25R WCI 34 MONCKS CORNER FAIR 39 34 81 NE5 30.34R WCI 36 SUMMERVILLE FAIR 37 36 93 CALM 30.35R BEAUFORT MCAS CLOUDY 40 36 86 NE9 30.34R WCI 34 BEAUFORT ARPT FAIR 41 36 81 N8 30.34R HILTON HEAD IS CLOUDY 41 36 81 N7 30.33R WALTERBORO CLOUDY 37 37 100 NE5 30.36R WCI 34 ALLENDALE FAIR 39 36 87 NE3 30.34R ...SOUTHERN MIDLANDS AND PEE DEE... CITY SKY/WX TMP DP RH WIND PRES REMARKS GEORGETOWN NOT AVBL KINGSTREE NOT AVBL ORANGEBURG MOSUNNY 36 32 85 NE3 30.35R BARNWELL N/A 39 37 93 CALM 30.35R AIKEN CLOUDY 39 37 93 CALM 30.37R MANNING FAIR 37 36 93 N5 30.35R WCI 34 COLUMBIA CLOUDY 40 34 79 CALM 30.35R SUMTER SUNNY 37 32 81 NE7 30.33R WCI 32 FLORENCE SUNNY 37 31 78 N6 30.35R WCI 32 MYRTLE BEACH SUNNY 37 32 81 NE9 30.36R WCI 31 N MYRTLE BEACH CLOUDY 38 32 79 NE12 30.34R WCI 30 $$ GAZ063-065-086>088-099>101-113>116-118-119-134>141-150-271500- ...SOUTHEAST GEORGIA... CITY SKY/WX TMP DP RH WIND PRES REMARKS SAVANNAH ARPT CLOUDY 41 35 79 N8 30.33R HUNTER AAF CLOUDY 41 35 80 NE9 30.31R FORT STEWART CLOUDY 41 37 86 NE5 30.32R STATESBORO CLOUDY 41 41 99 NE3 30.34R SYLVANIA PTSUNNY 41 39 94 NE3 30.35R CLAXTON FAIR 41 39 93 CALM 30.34R ...CSRA...CENTRAL AND FAR SOUTHEAST GEORGIA... CITY SKY/WX TMP DP RH WIND PRES REMARKS THOMSON CLOUDY 42 40 95 CALM 30.39R AUGUSTA-BUSH CLOUDY 42 36 79 E5 30.36R AUGUSTA-DANIEL CLOUDY 44 37 76 CALM 30.35R SWAINSBORO FAIR 43 37 81 CALM 30.34R VIDALIA CLOUDY 41 37 87 NE3 30.33R EASTMAN FAIR 40 37 91 N5 30.37R WCI 36 HAZLEHURST FAIR 43 39 86 N5 30.32R ALMA CLOUDY 44 38 79 CALM 30.33R WAYCROSS CLOUDY 48 44 88 NE7 30.32R JESUP FAIR 45 41 87 NE5 30.34R BAXLEY CLOUDY 45 39 81 N7 30.32R BRUNSWICK CLOUDY 45 37 76 N7 30.34R SAINT SIMONS CLOUDY 44 37 76 N7 30.31R $$ SCZ027-028-034-036>038-045-046-048>050-GAZ119-141-271500- ...LAKE AND SUPPLEMENTAL COASTAL OBSERVATIONS... STATION/POSITION TIME TEMP WIND PRES WAVE SWELL AIR SEA DIR/SP/G HT/PER HT/PER/DIR (UTC) (F) (DEG/KT/KT) (MB) (FT/S) (FT/S/D) UPR LAKE MARION NOT AVBL WINYAH BAY 1245 35 360/ 5 1025.0 LAKE MURRAY 1300 38 50/ 1/ 3 1026.1R ACE BASIN NERRS NOT AVBL FORT PULASKI 1300 41 49 30/ 10/ 13 1026.5R SAPELO ISLAND 1300 43 20/ 8 1025.0 $$ ANZ835-935-AMZ111-154-330-350-352-354-370-450-454-472-271500- ...C-MAN AND BUOY OBSERVATIONS... STATION/POSITION TIME TEMP WIND PRES WAVE SWELL AIR SEA DIR/SP/G HT/PER HT/PER/DIR (UTC) (F) (DEG/KT/KT) (MB) (FT/S) (FT/S/D) BUOY 41004 1350 47 65 20/ 16/ 21 1025.5R 5/ 8 3/ 8 BUOY 41008 1350 46 52 30/ 17/ 19 1025.8R 4/ 5 2/110/ 8 FOLLY BEACH CMAN 1400 39 30/ 11/ 13 1027.5R CAPERS NEARSHORE NOT AVBL FRIPP NEARSHORE 1300 42 40/ 14/ 17 1025.0R STATION/POSITION TIME TEMP WIND PRES WAVE SWELL AIR SEA DIR/SP/G HT/PER HT/PER/DIR (UTC) (F) (DEG/KT/KT) (MB) (FT/S) (FT/S/D) 5E ST. MARYS GA 1321 53 N/A 4/ 5 FRYING PAN BUOY 1350 44 60 10/ 16/ 19 1027.0R 5/ 8 5/160/ 8 BUOY 41025 NOT AVBL CAPE LOOKOUT NC 1400 36 360/ 11/ 13 1026.7R BUOY 41002 1350 63 70 340/ 12/ 16 1022.3R 8/11 8/ 10/11 BUOY 41010 1320 68 73 40/ 12/ 16 1020.6R ST AUGUSTINE FL 1400 50 10/ 21/ 23 1025.2R $$

USA.gov is the U.S. government's official web portal to all federal, state and local government web resources and services.